DELTA 1 DEB, 42584

Orbit data source: Space-Track

DELTA 1 DEB, 42584 is space debris in SSO originally from a launch on Tue, 06 Nov 1973 UTC launched from the Air Force Western Test Range (AFWTR). Debris objects in space refer to the collection of defunct objects orbiting the Earth. Examples of debris include non-operational satellites, rocket bodies, and fragments generated from explosions, collisions, or faulty payload assembly.

Loading next visibility...
Identifier
42584, 1973-086HY
Orbit
SSO
Country
Flag of USUS
Related business
Manufacturer
Unknown
Mission
Spacecraft
Bus & Motor
Unknown
Mass
Unknown
Launch date (UTC)
1973-11-06 (53 years ago)
Launch vehicle
Unknown
Launch site
Air Force Western Test Range (AFWTR)
Object type
Payload
Rocket body
Debris
Shape & HBR
Unknown shape, 0.1 m
Radar Cross Section
Medium (>0.1 m² and <1 m²)

Expand to show TLE details & history
Last TLE update: 2 days ago

TLE from 2 days ago
0 DELTA 1 DEB
1 42584U 73086HY  26262.27193469 -.00000042  00000-0  37388-4 0  9996
2 42584 102.3952 279.1010 0019829 158.3250 266.1525 12.36927299579132
Epoch: 2026-09-19T06:31Z
TLE epoch observation values (Epoch: 2026-09-19T06:31:35.157Z)
Latitude
61.69671°
Longitude
159.06009°
Altitude
1,531.087 km
Speed
7.106 km/s
True Right ascension
17h 00m 33s
True Declination
61° 34' 01"
Sunlit
Object was in daylight at epoch
Visualization orbit readout
Latitude
Unknown
Longitude
Unknown
Altitude
Unknown
Speed
Unknown
Apparent Right ascension
Unknown
Apparent Declination
Unknown
Sunlit
N/A
Visualization observer readout
Local Sidereal Time
18:02:31
Azimuth
Unknown
Elevation
Unknown
Doppler factor
Unknown
Orbital elements
Apogee altitude
1,532.914 km
Perigee altitude
1,501.602 km
Semi-major axis
7,895.395 km
Eccentricity
0.00198
Inclination
102.3952°
RAAN
279.101°
Arg. of periapsis
158.325°
True anomaly
265.92583°
Mean anomaly
266.1525°
Eccentric anomaly
266.03916°
Mean motion
3.09373 °/min
Orbital period
116.36 mins
BSTAR
0.000037388
Loading maneuver chart data...
Computing Atmospheric mass density...
Loading historical data...
Loading historical data...
Loading historical data...
Loading historical data...
Loading historical data...
Loading historical data...
Loading historical data...

Documentation

Showing up to 5 results
|